Location: Township of Marena
(38.1747°N, 99.6798°W)
Time: 03:28:17
(UTC+00:00)

Cosmos 2058 Rocket - Pass Details

Date: 26 October 2020
Orbit: 610 x 639 km, 82.5° (Epoch: 24 November)

Event Time Altitude Azimuth Distance (km) Brightness Sun altitude
Rises 01:05:10 0° 192° (SSW) 2,904 6.7 -16.0°
Reaches altitude 10° 01:07:24 10° 195° (SSW) 2,005 5.9 -16.4°
Maximum altitude 01:11:49 68° 278° (W) 686 3.4 -17.3°
Drops below altitude 10° 01:16:19 10° 2° (N) 2,033 5.7 -18.2°
Sets 01:18:36 0° 5° (N) 2,948 6.5 -18.6°
